Weather observations for the past three days for
Fort Knox
Imperial (Metric)
Date Time (edt) Wind (mph) Vis. (mi.) Weather Sky Cond. Temperature (ºF) Relative Humidity Wind Chill (°F) Heat Index (°F) Pressure Precipitation (in)
Air Dwpt 6 hour altimeter (in) sea level (mb) 1 hr 3 hr 6 hr
Max. Min.
22 15:55 Calm 10.00 Mostly Cloudy SCT100 BKN140 BKN180 BKN200 81.9 69.3 66% 85 29.97 1014.3
22 14:55 Calm 10.00 Overcast SCT037 BKN046 OVC100 80.2 70 71% 83 29.99 1015.0
22 13:55 W 5 10.00 Overcast BKN023 OVC031 78.8 69.4 80.1 68.5 73% 81 30 1015.4
22 12:55 W 3 10.00 Mostly Cloudy BKN018 77.9 69.6 76% 80 30.01 1015.7
22 11:55 Calm 10.00 Mostly Cloudy BKN011 BKN170 74.7 69.1 83% 30.01 1015.8
22 10:55 E 5 10.00 Mostly Cloudy BKN007 BKN140 72 68.9 90% 30.01 1015.8
22 09:55 E 5 10.00 Mostly Cloudy SCT100 BKN130 70.5 67.5 90% 30.01 1015.8
22 08:55 E 8 10.00 Mostly Cloudy BKN110 69.1 66.9 93% 30 1015.5
22 07:55 NE 6 10.00 Overcast FEW060 OVC090 68.7 66.9 73.9 68.4 94% 29.99 1015.1 0.03 0.03
22 06:55 N 3 9.00 Light Rain SCT024 SCT038 BKN049 OVC065 69.4 66.4 90% 29.99 1015.0
22 05:55 N 5 10.00 Overcast BKN025 OVC160 71.1 66 84% 29.97 1014.3
22 04:55 N 3 10.00 Mostly Cloudy BKN180 71.6 65.8 82% 29.97 1014.3
22 03:55 NE 5 10.00 Overcast SCT130 OVC190 72.3 66.2 81% 29.98 1014.6
22 02:55 N 5 10.00 Mostly Cloudy BKN210 72.9 65.8 79% 29.97 1014.3
22 01:55 N 6 10.00 Mostly Cloudy BKN220 73.8 66.4 81.3 73 78% 29.99 1015.0
22 00:55 N 6 10.00 A Few Clouds FEW190 74.7 66.9 77% 29.99 1015.0
21 23:55 N 5 10.00 Mostly Cloudy BKN200 BKN230 73.9 67.6 81% 30 1015.5
21 22:55 NE 6 10.00 Mostly Cloudy FEW043 BKN150 75.4 67.6 77% 76 30 1015.4
21 21:55 N 3 10.00 Light Drizzle FEW150 75.2 67.8 78% 76 30 1015.5
21 20:55 N 5 10.00 A Few Clouds FEW160 76.6 68.9 77% 78 29.99 1015.1
21 19:55 N 6 10.00 A Few Clouds FEW048 81.5 69.8 85.6 79.9 68% 85 29.98 1014.7
21 18:55 N 6 10.00 Fair CLR 84.7 68.7 59% 88 29.97 1014.4
21 17:55 N 6 10.00 Fair CLR 85.1 69.1 59% 89 29.97 1014.3
21 16:55 NE 7 10.00 Mostly Cloudy SCT034 BKN090 83.5 69.4 63% 87 30 1015.4
21 15:55 N 8 10.00 A Few Clouds FEW034 84.7 70.2 62% 89 30.01 1015.7
21 14:55 E 7 10.00 Mostly Cloudy FEW060 SCT080 SCT180 BKN210 82.4 69.4 65% 86 30.03 1016.4
21 13:55 E 3 10.00 Partly Cloudy FEW120 FEW150 SCT180 SCT200 80.2 69.1 81.5 67.3 69% 83 30.04 1016.7 0.01
21 12:55 SE 3 10.00 Mostly Cloudy FEW130 SCT170 BKN200 77.5 68.2 73% 79 30.06 1017.5
21 11:55 NE 6 10.00 Mostly Cloudy BKN180 BKN200 75 67.6 78% 76 30.04 1016.8
21 10:55 E 7 10.00 Partly Cloudy SCT200 73.9 66.6 78% 30.05 1017.1 0.01
21 09:55 NE 6 10.00 Mostly Cloudy SCT100 BKN110 72.7 65.7 79% 30.05 1017.2
21 08:55 N 5 10.00 Partly Cloudy FEW075 SCT110 68.9 65.1 88% 30.05 1017.2 0.01
21 07:55 Calm 10.00 Light Rain BKN060 OVC095 67.1 64.9 73 66.4 93% 30.06 1017.5 0.08 0.12
21 06:55 Calm 10.00 Light Rain FEW050 BKN080 67.6 64.9 91% 30.04 1016.7
21 05:55 NE 8 10.00 Overcast FEW004 SCT070 BKN085 OVC110 68.4 64 86% 30.03 1016.4 0.04
21 04:55 N 3 10.00 Overcast SCT060 OVC075 70.7 63.1 77% 30.03 1016.4
21 03:55 Calm 10.00 Overcast OVC080 69.8 63.7 81% 30.04 1016.7
21 02:55 N 5 10.00 Mostly Cloudy FEW090 BKN130 70.7 63.1 77% 30.04 1016.7
21 01:55 NE 5 10.00 Mostly Cloudy BKN055 73.2 63.1 82.9 70.9 71% 30.04 1016.7
21 00:55 N 3 10.00 Mostly Cloudy SCT060 BKN080 72.9 64 74% 30.04 1016.7
20 23:55 N 6 10.00 Fair CLR 72.1 65.7 80% 30.04 1016.8
20 22:55 N 7 10.00 Overcast OVC070 76.3 67.3 74% 78 30.04 1016.7
20 21:55 Calm 10.00 Overcast OVC065 73.4 68.5 85% 30.05 1017.2
20 20:55 Calm 10.00 Fair CLR 77.4 68.4 74% 79 30.03 1016.5
20 19:55 N 3 10.00 Fair CLR 82 64.8 86.2 81.1 56% 84 30.02 1016.1
20 18:55 NE 7 10.00 Fair CLR 84.4 64.2 51% 86 30.02 1016.1
20 17:55 N 5 10.00 Mostly Cloudy BKN100 84.7 62.8 48% 86 30.04 1016.8
20 16:55 N 5 10.00 A Few Clouds FEW140 FEW190 82.8 63.3 52% 84 30.04 1016.8
20 15:55 N 5 10.00 Mostly Cloudy BKN085 84.9 60.4 44% 85 30.05 1017.1
20 14:55 NE 7 10.00 Mostly Cloudy BKN070 BKN100 83.5 64.9 54% 85 30.06 1017.5
20 13:55 NW 3 10.00 Overcast FEW070 OVC090 81.7 65.5 82.6 67.8 58% 84 30.07 1017.8
20 12:55 Calm 10.00 Overcast OVC060 81 63.7 56% 82 30.09 1018.5
20 11:55 Calm 10.00 Partly Cloudy SCT060 79 63 58% 81 30.09 1018.5
20 10:55 E 5 10.00 Mostly Cloudy BKN080 BKN100 76.3 63.1 64% 78 30.08 1018.3
20 09:55 E 6 10.00 Overcast OVC075 71.8 61.5 70% 30.08 1018.3
20 08:55 E 6 10.00 Mostly Cloudy BKN060 BKN070 69.8 59.9 71% 30.08 1018.3
20 07:55 NE 5 10.00 Mostly Cloudy BKN060 67.8 60.6 69.3 64.9 78% 30.07 1017.8
20 06:55 N 6 10.00 Fair CLR 66 60.6 83% 30.06 1017.5
20 05:55 N 7 10.00 Overcast OVC060 67.1 61 81% 30.06 1017.5
20 04:55 N 6 10.00 Overcast OVC065 66.7 60.3 80% 30.06 1017.5
20 03:55 N 6 10.00 Fair CLR 65.8 59.9 81% 30.05 1017.2
20 02:55 N 5 10.00 Fair CLR 67.1 59.9 78% 30.05 1017.1
20 01:55 NE 5 10.00 Fair CLR 69.6 59.7 81.5 66.7 71% 30.05 1017.1
20 00:55 NE 5 10.00 Fair CLR 68.5 61.3 78% 30.07 1017.9
19 23:55 N 3 10.00 Fair CLR 67.5 62.4 84% 30.07 1017.9
19 22:55 N 3 10.00 Fair CLR 67.5 63.1 86% 30.07 1017.9
19 21:55 N 5 10.00 Fair CLR 69.1 63.3 82% 30.06 1017.6
19 20:55 N 3 10.00 Fair CLR 73.2 66.9 81% 30.05 1017.3
19 19:55 N 3 10.00 Fair CLR 81.7 62.2 83.7 80.2 52% 83 30.05 1017.2
19 18:55 NE 5 10.00 Fair CLR 83.7 60.6 46% 84 30.05 1017.2
19 17:55 N 6 10.00 A Few Clouds FEW060 81.5 60.4 49% 82 30.05 1017.3
19 16:55 NE 3 10.00 A Few Clouds FEW190 83.3 61 47% 84 30.05 1017.2
Date Time (edt) Wind (mph) Vis. (mi.) Weather Sky Cond. Air Dwpt Max. Min. Relative Humidity Wind Chill (°F) Heat Index (°F) altimeter (in) sea level (mb) 1 hr 3 hr 6 hr
6 hour
Temperature (ºF) Pressure Precipitation (in)